N2XGL-1 Weather Reports


Display with metric or nautical units.
time (UTC)temp
F
wind
direction
speed
MPH
gust
MPH
rain 1hr
in
rain 24hr
in
rain mn
in
humidity
%
barometer
mb
20260505033308 50 225 2.0 3.0 0.05 0.09 0.00 86 1003.8
20260505032314 50 180 2.0 5.0 0.05 0.09 0.00 86 1003.6
20260505031453 50 180 4.0 11.0 0.03 0.07 0.00 84 1003.3
20260505030453 51 202 3.0 6.0 0.02 0.06 0.00 83 1003.1
20260505025601 51 225 3.0 6.0 0.02 0.06 0.00 82 1003.1
20260505024648 51 248 5.0 10.0 0.01 0.05 0.00 80 1002.9
20260505022813 51 270 3.0 6.0 0.00 0.04 0.00 75 1002.8
20260505021933 51 270 4.0 6.0 0.00 0.04 0.00 74 1002.7
20260505021044 51 270 3.0 6.0 0.00 0.04 0.00 74 1002.6
20260505020108 51 292 3.0 7.0 0.00 0.04 0.00 74 1002.6
20260505015253 51 270 3.0 5.0 0.00 0.04 0.00 74 1002.6
20260505014321 52 270 3.0 8.0 0.00 0.04 0.00 74 1002.4
20260505012518 53 315 5.0 12.0 0.00 0.04 0.00 72 1002.3
20260505011601 53 315 4.0 13.0 0.00 0.04 0.00 71 1002.2
20260505004808 56 315 6.0 15.0 0.00 0.04 0.00 63 1002.1
20260505004033 56 0 6.0 13.0 0.00 0.04 0.00 63 1002.0
20260505003948 56 0 6.0 13.0 0.00 0.04 0.00 63 1002.0
20260505002948 56 338 2.0 5.0 0.00 0.04 0.00 65 1001.8
20260505001018 57 270 1.0 4.0 0.00 0.04 0.00 75 1001.5
20260504234238 56 202 1.0 2.0 0.03 0.04 0.00 76 1001.2
20260504233322 56 22 2.0 5.0 0.03 0.04 0.00 76 1000.9
20260504232344 56 0 2.0 3.0 0.03 0.04 0.00 75 1001.2
20260504231438 56 0 2.0 4.0 0.03 0.04 0.00 74 1001.5
20260504230608 58 270 3.0 6.0 0.03 0.04 0.00 68 1001.4
20260504230521 58 270 3.0 6.0 0.03 0.04 0.00 68 1001.4
20260504224748 61 292 6.0 14.0 0.00 0.01 0.00 54 1001.1
20260504223928 61 315 2.0 5.0 0.00 0.01 0.00 45 1000.8
20260504223003 62 0 4.0 7.0 0.00 0.01 0.00 43 1000.4
20260504222044 62 22 4.0 7.0 0.00 0.01 0.00 43 1000.3
20260504221112 62 0 4.0 10.0 0.00 0.01 0.00 44 1000.0
20260504220513 62 45 7.0 16.0 0.00 0.01 0.00 43 999.4
20260504220245 62 45 7.0 16.0 0.00 0.01 0.00 43 999.4
20260504215401 62 68 7.0 16.0 0.00 0.01 0.00 46 999.4
20260504214458 62 45 6.0 14.0 0.01 0.01 0.00 47 999.9
20260504213638 61 68 6.0 12.0 0.01 0.01 0.00 48 1000.1
20260504212839 59 68 3.0 7.0 0.01 0.01 0.00 50 1000.6
20260504212009 59 68 3.0 7.0 0.01 0.01 0.00 56 1001.1
20260504211802 59 0 7.0 17.0 0.01 0.01 0.00 50 1001.1
20260504210221 59 0 7.0 17.0 0.01 0.01 0.00 50 1001.1
20260504205318 61 0 6.0 15.0 0.01 0.01 0.00 50 1000.7
20260504204441 64 0 8.0 17.0 0.00 0.00 0.00 38 1000.3
20260504202653 65 0 11.0 22.0 0.00 0.00 0.00 34 999.4
20260504201731 67 0 13.0 26.0 0.00 0.00 0.00 31 999.0
20260504200748 71 0 8.0 17.0 0.00 0.00 0.00 26 998.6
20260504195838 72 0 6.0 14.0 0.00 0.00 0.00 26 998.6
20260504194858 74 315 4.0 10.0 0.00 0.00 0.00 26 998.6
20260504193948 75 292 4.0 12.0 0.00 0.00 0.00 28 998.8
20260504193254 77 315 6.0 14.0 0.00 0.00 0.00 25 998.7
20260504193148 77 315 6.0 14.0 0.00 0.00 0.00 25 998.7
20260504192313 77 315 8.0 16.0 0.00 0.00 0.00 26 998.7
20260504191424 76 270 8.0 16.0 0.00 0.00 0.00 24 998.7
20260504190613 76 270 10.0 18.0 0.00 0.00 0.00 25 998.8
20260504185808 76 270 12.0 18.0 0.00 0.00 0.00 24 999.0
20260504184828 76 270 9.0 15.0 0.00 0.00 0.00 26 998.8
20260504183918 76 270 11.0 17.0 0.00 0.00 0.00 26 999.1
20260504183049 75 270 12.0 20.0 0.00 0.00 0.00 27 999.2
20260504181158 71 248 11.0 18.0 0.00 0.00 0.00 28 999.6
20260504180401 70 270 9.0 15.0 0.00 0.00 0.00 30 999.6
20260504175512 68 248 12.0 19.0 0.00 0.00 0.00 31 999.8
20260504175403 68 248 12.0 19.0 0.00 0.00 0.00 31 999.8
20260504174744 68 248 10.0 16.0 0.00 0.00 0.00 32 999.9
20260504174548 68 248 10.0 16.0 0.00 0.00 0.00 32 999.9
20260504173653 67 248 3.0 6.0 0.00 0.00 0.00 36 1000.1
20260504172721 66 158 3.0 7.0 0.00 0.00 0.00 35 1000.0
20260504171743 65 158 2.0 5.0 0.00 0.00 0.00 40 1000.3
20260504170921 65 158 3.0 6.0 0.00 0.00 0.00 36 1000.3
20260504150644 61 270 11.0 16.0 0.00 0.00 0.00 35 1000.4
20260504141118 51 180 1.0 2.0 0.00 0.00 0.00 63 1000.5
20260504140214 50 0 0.0 2.0 0.00 0.00 0.00 64 1000.6
20260504110158 41 0 0.0 2.0 0.00 0.00 0.00 55 1000.6
20260504081409 49 0 0.0 2.0 0.00 0.00 0.00 42 1001.3
20260504081138 49 0 0.0 2.0 0.00 0.00 0.00 42 1001.3
20260504080308 49 338 1.0 2.0 0.00 0.00 0.00 41 1001.4
20260504070409 51 270 2.0 4.0 0.00 0.00 0.00 40 1001.9
20260504070153 51 270 2.0 4.0 0.00 0.00 0.00 40 1001.9
20260504050433 59 0 4.0 10.0 0.00 0.00 0.00 34 1001.9
20260504045558 60 0 6.0 15.0 0.00 0.00 0.00 33 1001.9
20260504044558 60 0 5.0 12.0 0.00 0.00 0.00 31 1001.9
20260504043611 60 0 8.0 14.0 0.00 0.00 0.00 33 1001.8
20260504042618 58 338 4.0 13.0 0.00 0.00 0.00 35 1001.8
20260504041812 58 270 6.0 10.0 0.00 0.00 0.00 35 1001.5
20260504040928 57 270 7.0 12.0 0.00 0.00 0.00 35 1001.6
20260504035947 57 270 7.0 13.0 0.00 0.00 0.00 36 1001.6
20260504035033 57 270 6.0 11.0 0.00 0.00 0.00 36 1001.6
20260504034228 57 270 6.0 10.0 0.00 0.00 0.00 36 1001.6